Hourly Data Report for March 04, 2003

TORONTO CITY
ONTARIO

43°40'00.000" N
79°24'00.000" W
112.50 m
6158355
71508
XTO

Download Data

Hourly Data (March 2003)
Hourly Data Report for March 4, 2003
TIME
LST
Temp Definition
°C
Dew Point Definition
°C
Rel Hum Definition
%
Precip. Amount Definition
mm

Wind Dir Definition
10's deg

Wind Spd Definition
km/h
Visibility Definition
km
Stn Press Definition
kPa
Hmdx Definition


Wind Chill Definition


Weather Definition


00:00 -10.6 -15.4 68   LegendMM LegendMM LegendMM 100.35     LegendNANA
01:00 -10.3 -15.7 65   LegendMM LegendMM LegendMM 100.32     LegendNANA
02:00 -9.6 -13.6 73   LegendMM LegendMM LegendMM 100.25     LegendNANA
03:00 -8.8 -12.2 76   LegendMM LegendMM LegendMM 100.14     LegendNANA
04:00 -8.4 -10.6 84   LegendMM LegendMM LegendMM 100.05     LegendNANA
05:00 -7.3 -9.0 88   LegendMM LegendMM LegendMM 99.99     LegendNANA
06:00 -6.1 -7.9 87   LegendMM LegendMM LegendMM 99.93     LegendNANA
07:00 -6.0 -7.9 86   LegendMM LegendMM LegendMM 99.87     LegendNANA
08:00 -5.9 -7.7 87   LegendMM LegendMM LegendMM 99.88     LegendNANA
09:00 -5.1 -7.2 85   LegendMM LegendMM LegendMM 99.88     LegendNANA
10:00 -2.8 -5.9 79   LegendMM LegendMM LegendMM 99.84     LegendNANA
11:00 -1.0 -4.6 77   LegendMM LegendMM LegendMM 99.83     LegendNANA
12:00 0.6 -4.1 71   LegendMM LegendMM LegendMM 99.75     LegendNANA
13:00 1.7 -3.7 67   LegendMM LegendMM LegendMM 99.77     LegendNANA
14:00 2.3 -3.9 64   LegendMM LegendMM LegendMM 99.69     LegendNANA
15:00 2.7 -3.5 64   LegendMM LegendMM LegendMM 99.67     LegendNANA
16:00 2.9 -3.1 65   LegendMM LegendMM LegendMM 99.68     LegendNANA
17:00 2.5 -3.1 67   LegendMM LegendMM LegendMM 99.63     LegendNANA
18:00 2.5 -1.9 73   LegendMM LegendMM LegendMM 99.66     LegendNANA
19:00 1.9 -0.6 83   LegendMM LegendMM LegendMM 99.70     LegendNANA
20:00 1.8 -0.2 87   LegendMM LegendMM LegendMM 99.68     LegendNANA
21:00 1.6 0.1 90   LegendMM LegendMM LegendMM 99.61     LegendNANA
22:00 1.2 0.2 93   LegendMM LegendMM LegendMM 99.68     LegendNANA
23:00 0.1 -0.8 94   LegendMM LegendMM LegendMM 99.66     LegendNANA

Notes on Data Quality.

Legend

  • E = Estimated
  • M = Missing
  • NA = Not Available*
  • [empty] = Indicates an unobserved value
Date modified: